, AK

(GMT )
Northway

Weather History for PAOR - May, 2014

Change the Weather History Date:

Wednesday, May 7, 2014

  Actual Average Record
Temperature  
Mean Temperature 50 °F -  
Max Temperature 61 °F 53 °F 69 °F (2005)
Min Temperature 41 °F 28 °F 18 °F (1967)
Degree Days  
Heating Degree Days 15    
Moisture  
Dew Point 29 °F    
Average Humidity 44    
Maximum Humidity 65    
Minimum Humidity 27    
Precipitation  
Precipitation 0.00 in - - ()
Sea Level Pressure  
Sea Level Pressure 29.69 in    
Wind  
Wind Speed 6 mph (NW)    
Max Wind Speed 12 mph    
Max Gust Speed 21 mph    
Visibility 10 miles    
Events      
Averages and records for this station are not official NWS values.
T = Trace of Precipitation, MM = Missing Value Source: NWS Daily Summary

Daily Weather History Graph

Daily Weather History Graph

Search for Another Location

Airport or City:

Trip Planner

Search our weather history database for the weather conditions in past years. The results will help you decide how hot, cold, wet, or windy it might be!

Date:

Astronomy

May. 07, 2014 Rise Set
Actual Time 4:48 AM AKDT 10:01 PM AKDT
Civil Twilight 3:38 AM AKDT 11:14 PM AKDT
Nautical Twilight 1:56 AM AKDT 12:51 AM AKDT
Astronomical Twilight Sun does not set Sun does not set
Moon 1:00 PM AKDT (5/7) 3:11 AM AKDT (5/7)
Length of Visible Light 19h 35m
Length of Day
17h 13m
First Quarter, 57% of the Moon is Illuminated
May 7
First Quarter
May 14
Full
May 21
Last Quarter
May 28
New
Jun 5
First Quarter

Hourly Weather History & Observations

Time (AKDT) Temp. Windchill Dew Point Humidity Pressure Visibility Wind Dir Wind Speed Gust Speed Precip Events Conditions
12:53 AM 46.4 °F 42.9 °F 32.0 °F 57% 29.64 in 10.0 mi NW 6.9 mph - N/A   Mostly Cloudy
1:53 AM 45.0 °F 41.8 °F 30.9 °F 58% 29.66 in 10.0 mi NW 5.8 mph - N/A   Mostly Cloudy
2:53 AM 42.1 °F 39.2 °F 30.9 °F 65% 29.67 in 10.0 mi WNW 4.6 mph - N/A   Mostly Cloudy
3:53 AM 42.1 °F 40.2 °F 30.9 °F 65% 29.68 in 10.0 mi NW 3.5 mph - N/A   Mostly Cloudy
4:53 AM 43.0 °F 39.5 °F 28.9 °F 58% 29.69 in 10.0 mi WNW 5.8 mph - N/A   Mostly Cloudy
5:53 AM 41.0 °F 36.4 °F 28.9 °F 62% 29.72 in 10.0 mi West 6.9 mph - N/A   Scattered Clouds
6:53 AM 44.1 °F 42.5 °F 30.0 °F 58% 29.73 in 10.0 mi WNW 3.5 mph - N/A   Clear
7:53 AM 46.0 °F 44.8 °F 28.9 °F 51% 29.74 in 10.0 mi North 3.5 mph - N/A   Clear
8:53 AM 52.0 °F - 28.0 °F 40% 29.73 in 10.0 mi WNW 6.9 mph 17.3 mph N/A   Mostly Cloudy
9:53 AM 53.1 °F - 28.0 °F 38% 29.73 in 10.0 mi Variable 6.9 mph 19.6 mph N/A   Scattered Clouds
10:53 AM 55.0 °F - 28.9 °F 37% 29.72 in 10.0 mi WNW 10.4 mph - N/A   Scattered Clouds
11:53 AM 57.0 °F - 28.9 °F 34% 29.71 in 10.0 mi Variable 5.8 mph - N/A   Scattered Clouds
12:53 PM 57.9 °F - 27.0 °F 31% 29.71 in 10.0 mi NW 10.4 mph 16.1 mph N/A   Mostly Cloudy
1:53 PM 59.0 °F - 26.1 °F 28% 29.70 in 10.0 mi Variable 5.8 mph - N/A   Mostly Cloudy
2:53 PM 59.0 °F - 27.0 °F 29% 29.69 in 10.0 mi WNW 4.6 mph - N/A   Mostly Cloudy
3:53 PM 59.0 °F - 27.0 °F 29% 29.68 in 10.0 mi WNW 6.9 mph - N/A   Mostly Cloudy
4:53 PM 57.9 °F - 28.0 °F 32% 29.68 in 10.0 mi Variable 6.9 mph - N/A   Mostly Cloudy
5:53 PM 59.0 °F - 27.0 °F 29% 29.68 in 10.0 mi WNW 10.4 mph - N/A   Scattered Clouds
6:53 PM 59.0 °F - 25.0 °F 27% 29.68 in 10.0 mi North 5.8 mph - N/A   Scattered Clouds
7:53 PM 55.9 °F - 26.1 °F 32% 29.68 in 10.0 mi WNW 5.8 mph - N/A   Partly Cloudy
8:53 PM 54.0 °F - 26.1 °F 34% 29.68 in 10.0 mi West 4.6 mph - N/A   Overcast
9:53 PM 51.1 °F - 30.0 °F 44% 29.68 in 10.0 mi Calm Calm - N/A   Mostly Cloudy
10:53 PM 48.2 °F - 33.8 °F 58% 29.68 in 10.0 mi NW 11.5 mph 18.4 mph N/A   Mostly Cloudy
11:53 PM 45.0 °F 39.7 °F 34.0 °F 65% 29.71 in 10.0 mi NW 10.4 mph 20.7 mph N/A   Mostly Cloudy